[[{"header":{"parameterUnit":"m.s-1","parameterCategory":2,"la1":30.2991,"la2":30.254,"lo1":-89.0895,"lo2":-89.0444,"dy":0.0017,"dx":0.0017,"nx":28,"ny":28,"refTime":"2024-10-03T21:00:00:Z","depth":"0","parameterNumber":2,"parameterNumberName":"U-component_of_CURRENTS"},"data":[0,0,0,0,0,0,0,0,0,0,0,0,0,0,0,0,0,0,0,0,0,0,0,0,0,0,0,0,0,0,0,0,0,0,0,0,0,0,0,0,0,0,0,0,0,0,0,0,0,0,0,0,0,0,0,0,0,0,-0.294,-0.2941,0,-0.3006,-0.3006,-0.3006,-0.2996,-0.2996,-0.2995,-0.2995,-0.2983,-0.2984,-0.2984,0,0,0,0,0,0,0,0,0,0,0,0,0,-0.2637,-0.2644,-0.2939,-0.2941,-0.2942,-0.3006,-0.3006,-0.3006,-0.2997,-0.2996,-0.2995,-0.2994,-0.2983,-0.2984,-0.2984,0,0,0,0,0,0,0,0,0,0,0,0,0,-0.2738,-0.2646,-0.2939,-0.2949,-0.2951,-0.3006,-0.3006,-0.3006,-0.2997,-0.2996,-0.2995,-0.2994,-0.2983,-0.2984,-0.2984,-0.3004,0,0,-0.2985,-0.2985,0,0,0,0,0,0,0,0,-0.2732,-0.2748,-0.2946,-0.2949,-0.2951,-0.2997,-0.2896,-0.3004,-0.2997,-0.2973,-0.2995,-0.2994,-0.2985,-0.2985,-0.2993,-0.3003,-0.3003,-0.2985,-0.2985,-0.2985,-0.2985,0,0,0,0,0,0,0,-0.2725,-0.2744,-0.296,-0.2948,-0.2951,-0.2894,-0.2908,-0.2915,-0.2977,-0.2975,-0.2976,-0.2993,-0.2985,-0.2992,-0.2992,-0.3002,-0.2985,-0.2985,-0.2986,-0.2986,-0.3003,-0.3004,0,0,0,0,0,0,-0.274,-0.274,-0.2958,-0.2962,-0.2844,-0.2901,-0.2916,-0.2978,-0.2979,-0.2981,-0.2994,-0.2993,-0.2992,-0.2992,-0.2992,-0.298,-0.2985,-0.2986,-0.2986,-0.3003,-0.3003,-0.3004,0,0,0,0,0,0,-0.2734,-0.2761,-0.2955,-0.2853,-0.2874,-0.2909,-0.2977,-0.298,-0.2993,-0.2995,-0.2994,-0.3005,-0.2991,-0.2991,-0.2998,-0.298,-0.2986,-0.2986,-0.3003,-0.3003,-0.3004,-0.2979,0,0,0,0,0,0,-0.2726,-0.2759,-0.2815,-0.2857,-0.2881,-0.299,-0.2979,-0.2982,-0.3008,-0.3007,-0.3004,-0.3002,-0.2991,-0.2997,-0.2998,-0.2981,-0.2986,-0.3003,-0.3003,-0.3003,-0.2979,-0.2978,-0.2977,0,0,0,0,0,-0.2716,-0.282,-0.2819,-0.2845,-0.2957,-0.2992,-0.2998,-0.3012,-0.3009,-0.3019,-0.3014,-0.3002,-0.3,-0.2998,-0.2999,-0.2982,-0.3002,-0.3003,-0.3003,-0.298,-0.2978,-0.2977,0,0,0,0,0,0,-0.2747,-0.283,-0.2829,-0.2962,-0.2965,-0.2992,-0.3031,-0.3021,-0.3027,-0.3031,-0.3013,-0.3011,-0.3,-0.3009,-0.3007,-0.299,-0.2997,-0.2998,-0.2979,-0.2977,-0.2977,-0.3,-0.2987,0,0,0,0,0,-0.2773,-0.2857,-0.2893,-0.299,-0.3003,-0.3008,-0.3028,-0.3026,-0.3037,-0.304,-0.303,-0.3024,-0.3005,-0.3007,-0.2996,-0.3005,-0.3019,-0.2993,-0.2992,-0.2991,-0.3013,-0.3038,-0.3041,-0.3006,-0.3006,-0.3006,0,0,-0.2816,-0.2869,-0.2921,-0.2996,-0.3011,-0.3031,-0.3018,-0.3057,-0.3051,-0.3038,-0.3041,-0.3018,-0.3005,-0.2993,-0.2991,-0.3,-0.3001,-0.2992,-0.2991,-0.3014,-0.3039,-0.3043,-0.3046,-0.3006,-0.3006,-0.3006,0,0,-0.2901,-0.2982,-0.3046,-0.3052,-0.3075,-0.3075,-0.3083,-0.3095,-0.308,-0.3074,-0.3049,-0.3027,-0.3019,-0.2995,-0.2983,-0.2982,-0.2988,-0.2975,-0.2998,-0.3021,-0.3024,-0.3028,-0.3015,-0.3017,-0.2984,-0.2984,-0.2984,0,-0.2938,-0.3037,-0.3063,-0.3094,-0.312,-0.3093,-0.3129,-0.3106,-0.3105,-0.311,-0.3075,-0.3057,-0.3016,-0.3013,-0.2983,-0.2977,-0.2992,-0.2996,-0.302,-0.3024,-0.3027,-0.3014,-0.3017,-0.2983,-0.2983,-0.2983,-0.2983,0,-0.3026,-0.3099,-0.3141,-0.3172,-0.319,-0.323,-0.3197,-0.3191,-0.3166,-0.3146,-0.313,-0.3073,-0.3073,-0.303,-0.2992,-0.2997,-0.2996,-0.3005,-0.3021,-0.3029,-0.3014,-0.3018,-0.2981,-0.2982,-0.2982,-0.2982,0,0,-0.3097,-0.3193,-0.3191,-0.3228,-0.3242,-0.3268,-0.326,-0.3266,-0.3283,-0.3223,-0.3249,-0.315,-0.313,-0.3115,-0.3065,-0.3055,-0.3033,-0.3037,-0.3039,-0.3021,-0.3073,-0.2887,-0.2873,-0.3058,-0.3059,-0.3061,-0.3037,0,-0.3142,-0.3247,-0.3265,-0.3334,-0.3391,-0.3371,-0.3376,-0.3364,-0.3338,-0.3344,-0.3269,-0.3261,-0.3158,-0.3152,-0.3121,-0.3067,-0.305,-0.3038,-0.3072,-0.3072,-0.2904,-0.2873,-0.2752,-0.2706,-0.3041,-0.3042,-0.3042,0,-0.3167,-0.3258,-0.3358,-0.3452,-0.3472,-0.349,-0.3529,-0.3523,-0.3504,-0.3489,-0.3467,-0.3418,-0.336,-0.3282,-0.3204,-0.3209,-0.3139,-0.3088,-0.3087,-0.2934,-0.2894,-0.276,-0.27,-0.2696,-0.3048,-0.3047,-0.3047,0,-0.3181,-0.3294,-0.3396,-0.3423,-0.352,-0.3548,-0.3575,-0.3575,-0.3573,-0.3585,-0.3585,-0.355,-0.3483,-0.3442,-0.3234,-0.3263,-0.3139,-0.3183,-0.2957,-0.2943,-0.2855,-0.2829,-0.2794,-0.3155,-0.3155,-0.3155,-0.3155,0,-0.3216,-0.328,-0.3415,-0.3473,-0.3558,-0.3605,-0.3664,-0.367,-0.3693,-0.3635,-0.3655,-0.3564,-0.3516,-0.3396,-0.3296,-0.3076,-0.3183,-0.295,-0.2924,-0.2834,-0.2808,-0.2812,-0.284,-0.3154,-0.3154,-0.3154,-0.3155,0,-0.3183,-0.3282,-0.3397,-0.3541,-0.3566,-0.3616,-0.3684,-0.367,-0.3742,-0.3665,-0.3661,-0.3584,-0.3409,-0.3321,-0.3194,-0.3088,-0.2891,-0.2855,-0.2711,-0.2666,-0.2493,-0.2523,-0.2445,-0.2381,-0.269,-0.2685,-0.2681,0,-0.3173,-0.3242,-0.3408,-0.341,-0.3463,-0.3547,-0.3524,-0.3646,-0.3594,-0.3576,-0.3468,-0.3374,-0.3156,-0.2951,-0.279,-0.2648,-0.2652,-0.2457,-0.2484,-0.2443,-0.2463,-0.249,-0.2448,-0.2363,-0.2356,-0.2351,-0.2347,0,-0.3121,-0.318,-0.3246,-0.3292,-0.3295,-0.3322,-0.3314,-0.3323,-0.3343,-0.3304,-0.3114,-0.3003,-0.2795,-0.2552,-0.2393,-0.2292,-0.2407,-0.2343,-0.2375,-0.2244,-0.2207,-0.2145,-0.2407,-0.2301,-0.2306,-0.2309,-0.2312,-0.2314,-0.2988,-0.3012,-0.3061,-0.3069,-0.3073,-0.2999,-0.2939,-0.2903,-0.2836,-0.2676,-0.2696,-0.2492,-0.2386,-0.2148,-0.2046,-0.1916,-0.2017,-0.1907,-0.1959,-0.2001,-0.1891,-0.2,-0.181,-0.1812,-0.1813,-0.1814,-0.1815,0,-0.2766,-0.2788,-0.2791,-0.2779,-0.2676,-0.2769,-0.2668,-0.2541,-0.2342,-0.2279,-0.2133,-0.2013,-0.1827,-0.1799,-0.1677,-0.1594,-0.1608,-0.1576,-0.166,-0.1647,-0.1807,-0.1741,-0.1438,-0.1438,-0.1438,-0.1438,-0.1438,-0.1438,-0.2626,-0.2545,-0.2567,-0.2352,-0.2327,-0.2113,-0.2016,-0.1872,-0.1797,-0.16,-0.1548,-0.158,-0.1599,-0.1665,-0.1555,-0.1479,-0.15,-0.1401,-0.1467,-0.1665,-0.1704,-0.1741,-0.1686,-0.1376,-0.1376,-0.1262,-0.1262,-0.1261]},{"header":{"parameterUnit":"m.s-1","parameterCategory":2,"la1":30.2991,"la2":30.254,"lo1":-89.0895,"lo2":-89.0444,"dy":0.0017,"dx":0.0017,"nx":28,"ny":28,"refTime":"2024-10-03T21:00:00:Z","depth":"0","parameterNumber":3,"parameterNumberName":"V-component_of_CURRENTS"},"data":[0,0,0,0,0,0,0,0,0,0,0,0,0,0,0,0,0,0,0,0,0,0,0,0,0,0,0,0,0,0,0,0,0,0,0,0,0,0,0,0,0,0,0,0,0,0,0,0,0,0,0,0,0,0,0,0,0,0,-0.0183,-0.0181,0,-0.001,-0.0009,-0.0007,0.0051,0.0051,0.005,0.005,0.0199,0.0204,0.0208,0,0,0,0,0,0,0,0,0,0,0,0,0,-0.0284,-0.0284,-0.0183,-0.0181,-0.0178,-0.0011,-0.0009,-0.0006,0.0051,0.0051,0.005,0.0049,0.0198,0.0203,0.0209,0,0,0,0,0,0,0,0,0,0,0,0,0,-0.019,-0.0284,-0.0183,-0.0129,-0.0122,-0.0011,-0.0008,-0.0006,0.0052,0.0051,0.005,0.0049,0.0196,0.0203,0.021,0.0271,0,0,0.0231,0.0234,0,0,0,0,0,0,0,0,-0.0196,-0.0187,-0.0139,-0.0132,-0.0125,-0.0001,0.0011,0.0086,0.0052,-0.0015,0.0049,0.0048,0.0132,0.0144,0.0177,0.0278,0.0284,0.0231,0.0235,0.0238,0.024,0,0,0,0,0,0,0,-0.0203,-0.0193,-0.0116,-0.0137,-0.0128,-0.0052,-0.0041,0.0026,0.006,-0.0009,-0.0005,0.0016,0.0135,0.017,0.0181,0.0286,0.0231,0.0237,0.0241,0.0244,0.047,0.0471,0,0,0,0,0,0,-0.023,-0.02,-0.0121,-0.011,-0.0162,-0.005,-0.0038,-0.0041,0.006,0.0075,0.0017,0.0018,0.0159,0.0173,0.0187,0.0276,0.0238,0.0245,0.0249,0.0468,0.047,0.0472,0,0,0,0,0,0,-0.0234,-0.0226,-0.0128,-0.0149,-0.0131,-0.0049,-0.0051,-0.0037,0.0002,0.0081,0.0095,0.0041,0.0159,0.0177,0.0259,0.0281,0.0248,0.0254,0.0466,0.0469,0.0471,0.0448,0,0,0,0,0,0,-0.0238,-0.0229,-0.023,-0.0152,-0.0131,-0.005,-0.0049,-0.0033,0.0017,0.0021,0.0107,0.0119,0.016,0.0248,0.0265,0.029,0.0259,0.0463,0.0467,0.047,0.0446,0.0449,0.0452,0,0,0,0,0,-0.0242,-0.0219,-0.0232,-0.0221,-0.014,-0.0048,-0.003,0.0026,0.0019,0.0053,0.0104,0.0117,0.0282,0.0256,0.0275,0.0303,0.0462,0.0466,0.047,0.0445,0.0449,0.0452,0,0,0,0,0,0,-0.0252,-0.0209,-0.0221,-0.0187,-0.0128,-0.0038,0.0015,0.0028,0.0097,0.01,0.0148,0.0167,0.0245,0.0284,0.0253,0.038,0.0372,0.0381,0.0346,0.0351,0.0354,0.0311,0.0265,0,0,0,0,0,-0.0263,-0.0243,-0.019,-0.0162,-0.0129,-0.0068,-0.0023,0.0006,0.0074,0.0103,0.0158,0.022,0.0281,0.032,0.0387,0.0462,0.0474,0.0492,0.0495,0.0497,0.0478,0.0518,0.0522,0.0486,0.0486,0.0486,0,0,-0.0261,-0.0231,-0.0222,-0.0163,-0.0108,-0.0054,-0.0041,0.0035,0.0067,0.011,0.0186,0.0237,0.0304,0.0385,0.0423,0.0418,0.0519,0.0503,0.0503,0.0483,0.0523,0.0526,0.0529,0.0489,0.0488,0.0488,0,0,-0.0211,-0.0216,-0.0171,-0.0132,-0.0058,-0.0024,-0.001,0.0074,0.0104,0.0183,0.0209,0.0269,0.0382,0.0423,0.0457,0.052,0.0533,0.0546,0.0529,0.057,0.0572,0.0573,0.0603,0.0608,0.0548,0.0548,0.0548,0,-0.0209,-0.0185,-0.0137,-0.0082,-0.0074,-0.0019,0.001,0.0074,0.0167,0.0173,0.0208,0.0333,0.0398,0.0454,0.0479,0.0524,0.054,0.0505,0.0569,0.0571,0.0573,0.0603,0.0608,0.0548,0.0548,0.0548,0.0548,0,-0.0117,-0.0125,-0.0085,-0.0037,0.0001,0.0033,0.0095,0.0134,0.0163,0.0204,0.0272,0.0368,0.042,0.0468,0.0499,0.0543,0.0547,0.0563,0.0547,0.0575,0.0606,0.0611,0.0547,0.0547,0.0547,0.0547,0,0,-0.0087,-0.0045,-0.0043,-0.008,-0.0009,0.0012,0.0076,0.0108,0.0112,0.0225,0.0236,0.0362,0.0385,0.0425,0.0474,0.0523,0.0572,0.0545,0.0547,0.055,0.0648,0.0624,0.0628,0.0592,0.0592,0.0593,0.0665,0,-0.0062,-0.0045,0.0001,-0.0016,-0.0041,-0.0004,0.0034,0.0077,0.0128,0.0176,0.0263,0.0321,0.038,0.04,0.046,0.0548,0.0585,0.055,0.064,0.0643,0.0598,0.0633,0.0666,0.073,0.067,0.0671,0.0672,0,-0.0019,-0.0043,-0.0074,-0.0133,-0.0127,-0.01,-0.0122,-0.007,0.0021,0.0062,0.0135,0.0216,0.0312,0.0359,0.0505,0.0477,0.0546,0.0618,0.0623,0.0604,0.0629,0.0695,0.0743,0.089,0.0681,0.068,0.068,0,-0.0132,-0.0122,-0.0194,-0.0204,-0.02,-0.021,-0.0191,-0.0123,-0.0094,-0.0012,0.0031,0.0143,0.0228,0.0328,0.049,0.0493,0.0647,0.0671,0.0708,0.0707,0.0754,0.0755,0.093,0.0742,0.0742,0.0742,0.0742,0,-0.0207,-0.0266,-0.0259,-0.0313,-0.0382,-0.0323,-0.0348,-0.031,-0.0214,-0.0163,-0.004,0.0033,0.0227,0.0354,0.0464,0.0608,0.0625,0.0699,0.0723,0.0749,0.0749,0.0891,0.0941,0.0745,0.0744,0.0744,0.0743,0,-0.0354,-0.0342,-0.0436,-0.0452,-0.0452,-0.0505,-0.0448,-0.0432,-0.0338,-0.026,-0.0227,-0.003,0.0124,0.0297,0.0485,0.0587,0.0785,0.0741,0.0751,0.0774,0.0926,0.0971,0.1105,0.1175,0.0795,0.0795,0.0795,0,-0.0432,-0.0503,-0.0563,-0.0593,-0.0601,-0.0634,-0.0622,-0.0529,-0.0471,-0.0291,-0.0239,-0.0069,0.0045,0.0302,0.0505,0.0671,0.0781,0.0799,0.0806,0.0934,0.1005,0.1032,0.1084,0.0877,0.0878,0.0878,0.0878,0,-0.06,-0.0617,-0.0684,-0.0749,-0.0762,-0.0772,-0.0726,-0.0702,-0.0541,-0.047,-0.0322,-0.0227,0.0056,0.0286,0.0518,0.063,0.0896,0.0809,0.0963,0.1089,0.1111,0.119,0.0823,0.0882,0.0882,0.0882,0.0881,0.0881,-0.0702,-0.0781,-0.0833,-0.0886,-0.0891,-0.0858,-0.0859,-0.0772,-0.0707,-0.0536,-0.0415,-0.0236,0.0153,0.0481,0.0612,0.0948,0.0912,0.1064,0.1111,0.1128,0.1187,0.0802,0.0867,0.0866,0.0866,0.0865,0.0865,0,-0.0811,-0.0867,-0.0938,-0.0969,-0.0959,-0.0937,-0.0874,-0.0837,-0.0768,-0.0601,-0.048,-0.004,0.0295,0.0656,0.1108,0.1278,0.1333,0.1368,0.1462,0.1503,0.1203,0.1199,0.1312,0.1312,0.1312,0.1312,0.1312,0.1312,-0.0858,-0.0956,-0.0981,-0.0993,-0.099,-0.0959,-0.0925,-0.0881,-0.0763,-0.0528,-0.0263,-0.0045,0.0497,0.1192,0.1607,0.164,0.1807,0.1764,0.1843,0.1693,0.167,0.1649,0.1662,0.187,0.187,0.2157,0.216,0.2162]}],[{"header":{"parameterUnit":"m.s-1","parameterCategory":2,"la1":30.2991,"la2":30.254,"lo1":-89.0895,"lo2":-89.0444,"dy":0.0017,"dx":0.0017,"nx":28,"ny":28,"refTime":"2024-10-03T21:00:00:Z","depth":"2","parameterNumber":2,"parameterNumberName":"U-component_of_CURRENTS"},"data":[0,0,0,0,0,0,0,0,0,0,0,0,0,0,0,0,0,0,0,0,0,0,0,0,0,0,0,0,0,0,0,0,0,0,0,0,0,0,0,0,0,0,0,0,0,0,0,0,0,0,0,0,0,0,0,0,0,0,-0.2397,-0.2398,0,-0.2472,-0.2473,-0.2474,-0.251,-0.2509,-0.2509,-0.2509,-0.2542,-0.2543,-0.2544,0,0,0,0,0,0,0,0,0,0,0,0,0,-0.2237,-0.224,-0.2397,-0.2398,-0.2398,-0.2472,-0.2473,-0.2474,-0.251,-0.2509,-0.2509,-0.2509,-0.2542,-0.2543,-0.2544,0,0,0,0,0,0,0,0,0,0,0,0,0,-0.231,-0.2241,-0.2397,-0.2424,-0.2427,-0.2472,-0.2473,-0.2475,-0.251,-0.2509,-0.2509,-0.2509,-0.2541,-0.2543,-0.2544,-0.2558,0,0,-0.2549,-0.2549,0,0,0,0,0,0,0,0,-0.2306,-0.2316,-0.2419,-0.2422,-0.2426,-0.248,-0.2429,-0.25,-0.251,-0.2479,-0.2509,-0.2509,-0.2517,-0.252,-0.2537,-0.2559,-0.2561,-0.2549,-0.255,-0.255,-0.2551,0,0,0,0,0,0,0,-0.2301,-0.2312,-0.2428,-0.242,-0.2424,-0.2417,-0.2427,-0.2443,-0.2498,-0.2482,-0.2485,-0.2491,-0.2518,-0.2536,-0.2538,-0.2561,-0.2549,-0.255,-0.2551,-0.2552,-0.2646,-0.2647,0,0,0,0,0,0,-0.2293,-0.2308,-0.2425,-0.243,-0.2363,-0.242,-0.2432,-0.2464,-0.2499,-0.2505,-0.2492,-0.2493,-0.2533,-0.2536,-0.2539,-0.2548,-0.255,-0.2552,-0.2553,-0.2644,-0.2646,-0.2648,0,0,0,0,0,0,-0.2289,-0.2303,-0.2422,-0.2368,-0.2382,-0.2423,-0.2459,-0.2466,-0.249,-0.2507,-0.2511,-0.251,-0.2533,-0.2537,-0.257,-0.255,-0.2553,-0.2554,-0.2642,-0.2645,-0.2647,-0.2572,0,0,0,0,0,0,-0.2285,-0.2302,-0.2326,-0.2369,-0.2385,-0.2449,-0.2459,-0.2467,-0.2494,-0.2496,-0.2524,-0.2526,-0.2533,-0.2568,-0.2572,-0.2552,-0.2555,-0.264,-0.2643,-0.2646,-0.2573,-0.2572,-0.2571,0,0,0,0,0,-0.2279,-0.232,-0.2328,-0.2341,-0.2417,-0.2449,-0.2457,-0.2485,-0.2495,-0.2506,-0.2535,-0.2526,-0.259,-0.2571,-0.2575,-0.2555,-0.2639,-0.2642,-0.2646,-0.2573,-0.2572,-0.2571,0,0,0,0,0,0,-0.2281,-0.2329,-0.2338,-0.2396,-0.2416,-0.2455,-0.2482,-0.249,-0.2523,-0.2536,-0.2544,-0.2549,-0.2574,-0.2592,-0.257,-0.26,-0.2613,-0.2618,-0.2557,-0.2556,-0.2555,-0.2584,-0.2556,0,0,0,0,0,-0.2287,-0.233,-0.2357,-0.2409,-0.2419,-0.2448,-0.2468,-0.2483,-0.2515,-0.2531,-0.2549,-0.2577,-0.2593,-0.2595,-0.2626,-0.2634,-0.2667,-0.2632,-0.263,-0.2629,-0.2661,-0.2701,-0.2705,-0.266,-0.266,-0.2659,0,0,-0.2313,-0.2338,-0.237,-0.241,-0.2437,-0.2464,-0.2461,-0.25,-0.2523,-0.2528,-0.2577,-0.2581,-0.2602,-0.2616,-0.2627,-0.2622,-0.2654,-0.2634,-0.2631,-0.2666,-0.2705,-0.2709,-0.2713,-0.2662,-0.2662,-0.2661,0,0,-0.235,-0.2399,-0.2422,-0.2453,-0.2481,-0.2491,-0.2499,-0.2534,-0.2549,-0.2572,-0.2592,-0.259,-0.2616,-0.2623,-0.2626,-0.2646,-0.2658,-0.2652,-0.2649,-0.2685,-0.2688,-0.2692,-0.2701,-0.2706,-0.2637,-0.2636,-0.2636,0,-0.2366,-0.2414,-0.2434,-0.2465,-0.2505,-0.2503,-0.2539,-0.2552,-0.2593,-0.2613,-0.2583,-0.2631,-0.2616,-0.2643,-0.2632,-0.2636,-0.2666,-0.2632,-0.2679,-0.2684,-0.2689,-0.2698,-0.2705,-0.2633,-0.2634,-0.2634,-0.2634,0,-0.2383,-0.246,-0.2487,-0.2524,-0.256,-0.2604,-0.2621,-0.2647,-0.264,-0.2643,-0.2666,-0.2644,-0.2668,-0.2642,-0.2625,-0.2657,-0.2668,-0.2676,-0.2668,-0.2688,-0.2697,-0.2705,-0.2629,-0.263,-0.2631,-0.2632,0,0,-0.2357,-0.2467,-0.2495,-0.2537,-0.2607,-0.2631,-0.2686,-0.2715,-0.2769,-0.2729,-0.2778,-0.2723,-0.2702,-0.271,-0.2685,-0.2686,-0.2685,-0.2686,-0.2689,-0.2671,-0.276,-0.255,-0.2539,-0.2703,-0.2705,-0.2706,-0.2737,0,-0.2366,-0.2455,-0.2502,-0.2602,-0.2658,-0.2709,-0.2782,-0.2818,-0.2825,-0.2871,-0.2804,-0.2845,-0.273,-0.2746,-0.2709,-0.2734,-0.2713,-0.2677,-0.2768,-0.2771,-0.2561,-0.2543,-0.237,-0.2366,-0.2745,-0.2747,-0.2748,0,-0.2362,-0.2436,-0.2551,-0.2687,-0.2715,-0.2765,-0.2887,-0.2942,-0.3006,-0.3026,-0.3007,-0.2985,-0.2958,-0.2874,-0.2848,-0.2838,-0.2791,-0.2777,-0.2778,-0.2625,-0.2576,-0.242,-0.2366,-0.2762,-0.276,-0.2759,-0.2759,0,-0.2344,-0.2467,-0.2566,-0.2621,-0.2769,-0.2825,-0.2878,-0.2989,-0.3035,-0.3137,-0.3148,-0.3148,-0.3112,-0.3089,-0.292,-0.2943,-0.2883,-0.2923,-0.2686,-0.2671,-0.2565,-0.2535,-0.2917,-0.2917,-0.2917,-0.2917,-0.2917,0,-0.2352,-0.2446,-0.2568,-0.264,-0.2757,-0.285,-0.2966,-0.305,-0.3141,-0.3128,-0.3204,-0.3145,-0.3164,-0.3068,-0.299,-0.2794,-0.2917,-0.2688,-0.2664,-0.2527,-0.2495,-0.2889,-0.2885,-0.2918,-0.2917,-0.2917,-0.2917,0,-0.2373,-0.2463,-0.2573,-0.2717,-0.2772,-0.2853,-0.2971,-0.2984,-0.3148,-0.3129,-0.3149,-0.3161,-0.3056,-0.2995,-0.2952,-0.2829,-0.2736,-0.2628,-0.243,-0.2379,-0.2515,-0.2508,-0.2489,-0.2482,-0.2476,-0.2471,-0.2466,0,-0.2405,-0.2476,-0.2619,-0.261,-0.2671,-0.2789,-0.2818,-0.2992,-0.2951,-0.3032,-0.293,-0.2926,-0.2763,-0.2643,-0.2529,-0.242,-0.2496,-0.2185,-0.2186,-0.2491,-0.2472,-0.2474,-0.2475,-0.203,-0.2022,-0.2016,-0.2011,0,-0.2451,-0.25,-0.2508,-0.2532,-0.2538,-0.2581,-0.2594,-0.2607,-0.27,-0.2707,-0.2593,-0.2536,-0.2409,-0.2215,-0.2097,-0.2002,-0.2215,-0.2052,-0.2449,-0.2123,-0.2049,-0.2032,-0.2051,-0.1956,-0.1962,-0.1966,-0.1969,-0.1971,-0.2394,-0.2381,-0.2362,-0.2332,-0.2346,-0.2304,-0.2244,-0.2218,-0.2218,-0.2148,-0.2182,-0.2059,-0.2053,-0.1795,-0.166,-0.1614,-0.1784,-0.1751,-0.1776,-0.1806,-0.1705,-0.1619,-0.1429,-0.1431,-0.1433,-0.1435,-0.1437,0,-0.2266,-0.222,-0.2147,-0.2069,-0.1953,-0.2073,-0.2009,-0.1903,-0.1801,-0.1786,-0.172,-0.1515,-0.1394,-0.1401,-0.1247,-0.1211,-0.1275,-0.1163,-0.1274,-0.1326,-0.1373,-0.1258,-0.0859,-0.0858,-0.0856,-0.0855,0,0,-0.2163,-0.2018,-0.1951,-0.1709,-0.1642,-0.1499,-0.1424,-0.1358,-0.1342,-0.1243,-0.1202,-0.13,-0.1333,-0.1093,-0.1039,-0.0923,-0.112,-0.0873,-0.1333,-0.1514,-0.1559,-0.1699,-0.1574,0,0,0,0,0]},{"header":{"parameterUnit":"m.s-1","parameterCategory":2,"la1":30.2991,"la2":30.254,"lo1":-89.0895,"lo2":-89.0444,"dy":0.0017,"dx":0.0017,"nx":28,"ny":28,"refTime":"2024-10-03T21:00:00:Z","depth":"2","parameterNumber":3,"parameterNumberName":"V-component_of_CURRENTS"},"data":[0,0,0,0,0,0,0,0,0,0,0,0,0,0,0,0,0,0,0,0,0,0,0,0,0,0,0,0,0,0,0,0,0,0,0,0,0,0,0,0,0,0,0,0,0,0,0,0,0,0,0,0,0,0,0,0,0,0,-0.0407,-0.0405,0,-0.0281,-0.0279,-0.0278,-0.0181,-0.0181,-0.018,-0.018,-0.0001,0.0003,0.0007,0,0,0,0,0,0,0,0,0,0,0,0,0,-0.0399,-0.0401,-0.0407,-0.0405,-0.0404,-0.0281,-0.0279,-0.0277,-0.0181,-0.0181,-0.018,-0.0179,-0.0002,0.0003,0.0008,0,0,0,0,0,0,0,0,0,0,0,0,0,-0.0348,-0.0401,-0.0407,-0.0344,-0.0337,-0.0282,-0.0279,-0.0277,-0.0182,-0.0181,-0.018,-0.0179,-0.0004,0.0002,0.0008,0.003,0,0,0.0028,0.003,0,0,0,0,0,0,0,0,-0.0351,-0.0348,-0.0355,-0.0348,-0.0341,-0.0249,-0.0211,-0.0173,-0.0182,-0.0237,-0.018,-0.0179,-0.0082,-0.0069,-0.0043,0.0038,0.0046,0.0028,0.0032,0.0035,0.0037,0,0,0,0,0,0,0,-0.0355,-0.0352,-0.0353,-0.0353,-0.0345,-0.0266,-0.0259,-0.0202,-0.0162,-0.0232,-0.0226,-0.0218,-0.0077,-0.005,-0.0038,0.0049,0.0028,0.0034,0.0038,0.004,0.0242,0.0243,0,0,0,0,0,0,-0.0388,-0.0357,-0.0357,-0.035,-0.0348,-0.0268,-0.026,-0.0276,-0.0164,-0.0147,-0.0218,-0.0214,-0.0061,-0.0046,-0.0032,0.003,0.0035,0.0041,0.0044,0.024,0.0242,0.0244,0,0,0,0,0,0,-0.0389,-0.039,-0.0363,-0.0351,-0.0342,-0.0271,-0.0289,-0.0275,-0.024,-0.0155,-0.0136,-0.0199,-0.006,-0.004,0.0039,0.0037,0.0044,0.0049,0.0238,0.0241,0.0243,0.0135,0,0,0,0,0,0,-0.0389,-0.0392,-0.0406,-0.0355,-0.0345,-0.0328,-0.029,-0.0273,-0.0239,-0.0231,-0.0132,-0.0115,-0.0057,0.0029,0.0045,0.0046,0.0054,0.0236,0.0239,0.0242,0.0137,0.0134,0.0131,0,0,0,0,0,-0.039,-0.0417,-0.0409,-0.0408,-0.0371,-0.0329,-0.0315,-0.0257,-0.0239,-0.0223,-0.0147,-0.0117,0.0059,0.0035,0.0054,0.0056,0.0235,0.0239,0.0242,0.0138,0.0134,0.0131,0,0,0,0,0,0,-0.0415,-0.0409,-0.0398,-0.0421,-0.0379,-0.0314,-0.0294,-0.0263,-0.0192,-0.0178,-0.0101,-0.0078,0.0004,0.0048,0.0019,0.013,0.0154,0.0161,0.0069,0.0066,0.0063,0.0025,0.0059,0,0,0,0,0,-0.0434,-0.0453,-0.0421,-0.0432,-0.0419,-0.0359,-0.0333,-0.0295,-0.0232,-0.02,-0.0128,-0.0046,0.0031,0.006,0.0148,0.0187,0.0242,0.0207,0.0204,0.02,0.0188,0.0285,0.0288,0.0255,0.0255,0.0255,0,0,-0.0445,-0.0443,-0.0452,-0.0438,-0.04,-0.0386,-0.0339,-0.0303,-0.0279,-0.0192,-0.0125,-0.0042,0.0049,0.0116,0.0152,0.0145,0.0239,0.0205,0.0201,0.019,0.0288,0.0291,0.0294,0.0258,0.0257,0.0257,0,0,-0.0486,-0.0476,-0.0511,-0.0471,-0.043,-0.0396,-0.0392,-0.0325,-0.0282,-0.0224,-0.0136,-0.007,0.0039,0.01,0.0141,0.017,0.024,0.0213,0.0138,0.0232,0.0234,0.0237,0.0297,0.0306,0.0186,0.0185,0.0185,0,-0.05,-0.053,-0.0505,-0.0506,-0.0464,-0.0411,-0.0402,-0.0362,-0.027,-0.0223,-0.0214,-0.0033,0.0021,0.0107,0.0106,0.0155,0.0224,0.0132,0.0223,0.0227,0.0232,0.0294,0.0305,0.0181,0.0181,0.0182,0.0182,0,-0.0549,-0.0557,-0.0558,-0.0553,-0.0513,-0.048,-0.0426,-0.0376,-0.0331,-0.0281,-0.0173,-0.0094,0.0008,0.0031,0.006,0.0133,0.0177,0.0223,0.0216,0.0228,0.0293,0.0307,0.0174,0.0176,0.0177,0.0178,0,0,-0.0594,-0.0604,-0.059,-0.0595,-0.0515,-0.05,-0.0443,-0.0377,-0.0333,-0.0268,-0.0197,-0.012,-0.0069,-0.0018,0.0047,0.0085,0.0143,0.0144,0.0151,0.0173,0.0346,0.0293,0.0303,0.0219,0.0221,0.0223,0.0372,0,-0.0623,-0.0665,-0.063,-0.0626,-0.0633,-0.0531,-0.0472,-0.0397,-0.033,-0.0249,-0.0179,-0.0089,-0.0089,-0.0038,0.0,0.0148,0.0178,0.0097,0.0358,0.0365,0.0291,0.0316,0.0299,0.0424,0.0386,0.0388,0.039,0,-0.067,-0.0679,-0.07,-0.066,-0.0644,-0.0622,-0.0499,-0.0445,-0.0314,-0.0249,-0.0169,-0.0088,-0.0009,-0.0014,0.0168,0.0131,0.021,0.0287,0.0297,0.029,0.0337,0.0415,0.0451,0.0413,0.0411,0.0409,0.0408,0,-0.073,-0.0726,-0.0751,-0.0723,-0.0665,-0.0627,-0.0578,-0.0443,-0.0388,-0.025,-0.0195,-0.0062,0.0013,0.0134,0.0239,0.024,0.0433,0.0473,0.0492,0.0489,0.0543,0.054,0.0579,0.0579,0.0578,0.0578,0.0577,0,-0.0782,-0.0784,-0.0789,-0.0788,-0.0769,-0.0689,-0.0638,-0.0548,-0.042,-0.0356,-0.0218,-0.015,0.0056,0.0178,0.0271,0.0407,0.0466,0.0477,0.0527,0.0504,0.0496,0.0545,0.054,0.0584,0.0582,0.0581,0.058,0,-0.0853,-0.0852,-0.0879,-0.0834,-0.0817,-0.0804,-0.0721,-0.0672,-0.053,-0.044,-0.0397,-0.0186,-0.0013,0.015,0.0374,0.0448,0.0584,0.0604,0.0533,0.0569,0.0574,0.0562,0.0687,0.0687,0.0686,0.0686,0.0685,0,-0.089,-0.0926,-0.0937,-0.0953,-0.094,-0.0911,-0.0863,-0.0739,-0.0685,-0.0485,-0.0443,-0.0245,-0.0122,0.0174,0.0368,0.0556,0.0551,0.0635,0.0609,0.055,0.0588,0.0576,0.0564,0.0653,0.0653,0.0652,0.0652,0,-0.0939,-0.0961,-0.0991,-0.1033,-0.1031,-0.1011,-0.0952,-0.0929,-0.0756,-0.0672,-0.0522,-0.0409,-0.011,0.0123,0.037,0.047,0.0609,0.0627,0.0649,0.0593,0.0521,0.0556,0.0546,0.0648,0.0648,0.0648,0.0649,0.0649,-0.0964,-0.1013,-0.1071,-0.1101,-0.1103,-0.1068,-0.1049,-0.0976,-0.089,-0.071,-0.061,-0.0399,-0.015,0.0209,0.0371,0.0556,0.0564,0.0631,0.0633,0.0635,0.0569,0.0497,0.0606,0.0606,0.0606,0.0606,0.0606,0,-0.1001,-0.1059,-0.1116,-0.1143,-0.1137,-0.1121,-0.1061,-0.1011,-0.092,-0.0752,-0.0612,-0.0345,-0.0083,0.0157,0.0443,0.0593,0.0614,0.0612,0.0623,0.0626,0.0629,0.0563,0.0599,0.0599,0.0599,0.06,0,0,-0.1021,-0.1104,-0.1136,-0.1136,-0.1145,-0.1113,-0.1078,-0.1001,-0.0878,-0.0724,-0.0556,-0.034,-0.0056,0.0139,0.0333,0.0477,0.0511,0.0488,0.048,0.0474,0.0475,0.0628,0.0526,0,0,0,0,0]}],[{"header":{"parameterUnit":"m.s-1","parameterCategory":2,"la1":30.2991,"la2":30.254,"lo1":-89.0895,"lo2":-89.0444,"dy":0.0017,"dx":0.0017,"nx":28,"ny":28,"refTime":"2024-10-03T21:00:00:Z","depth":"4","parameterNumber":2,"parameterNumberName":"U-component_of_CURRENTS"},"data":[0,0,0,0,0,0,0,0,0,0,0,0,0,0,0,0,0,0,0,0,0,0,0,0,0,0,0,0,0,0,0,0,0,0,0,0,0,0,0,0,0,0,0,0,0,0,0,0,0,0,0,0,0,0,0,0,0,0,-0.1331,-0.1331,0,-0.1283,-0.1282,-0.1281,-0.1296,-0.1297,-0.1299,-0.13,-0.1396,-0.1397,-0.1398,0,0,0,0,0,0,0,0,0,0,0,0,0,-0.136,-0.1359,-0.1331,-0.1331,-0.1331,-0.1283,-0.1282,-0.128,-0.1295,-0.1297,-0.1299,-0.1301,-0.1396,-0.1397,-0.1398,0,0,0,0,0,0,0,0,0,0,0,0,0,-0.1327,-0.1359,-0.1331,-0.1338,-0.1338,-0.1283,-0.1282,-0.128,-0.1295,-0.1297,-0.13,-0.1302,-0.1395,-0.1397,-0.1398,-0.1359,0,0,-0.1403,-0.1404,0,0,0,0,0,0,0,0,-0.1329,-0.1325,-0.1337,-0.1337,-0.1338,-0.1303,-0.1327,-0.1316,-0.1294,-0.1304,-0.13,-0.1303,-0.1381,-0.1384,-0.1358,-0.1364,-0.1368,-0.1403,-0.1404,-0.1405,-0.1405,0,0,0,0,0,0,0,-0.1331,-0.1327,-0.1305,-0.1337,-0.1337,-0.1317,-0.1315,-0.1323,-0.1327,-0.1304,-0.1306,-0.1311,-0.1382,-0.1356,-0.1361,-0.1369,-0.1403,-0.1405,-0.1406,-0.1406,-0.1417,-0.1417,0,0,0,0,0,0,-0.1352,-0.1329,-0.1307,-0.1305,-0.1347,-0.1316,-0.1313,-0.1307,-0.1324,-0.133,-0.1309,-0.1312,-0.1352,-0.1359,-0.1365,-0.1392,-0.1405,-0.1406,-0.1407,-0.1418,-0.1417,-0.1417,0,0,0,0,0,0,-0.1352,-0.1349,-0.1309,-0.1322,-0.1316,-0.1314,-0.1306,-0.1305,-0.1323,-0.1327,-0.1335,-0.1334,-0.1354,-0.1362,-0.1377,-0.1394,-0.1407,-0.1408,-0.1419,-0.1418,-0.1417,-0.1401,0,0,0,0,0,0,-0.1353,-0.1349,-0.135,-0.1323,-0.1317,-0.1286,-0.1304,-0.1302,-0.1322,-0.1326,-0.1351,-0.1359,-0.1357,-0.1374,-0.1379,-0.1396,-0.141,-0.142,-0.1418,-0.1417,-0.1402,-0.1399,-0.1397,0,0,0,0,0,-0.1354,-0.1315,-0.135,-0.1348,-0.1318,-0.1286,-0.1279,-0.1281,-0.1322,-0.1311,-0.1327,-0.1361,-0.1371,-0.1374,-0.138,-0.1398,-0.142,-0.1419,-0.1417,-0.1403,-0.14,-0.1397,0,0,0,0,0,0,-0.1319,-0.1314,-0.135,-0.1315,-0.1321,-0.1291,-0.1263,-0.1303,-0.1303,-0.1315,-0.1344,-0.1351,-0.1385,-0.138,-0.1384,-0.1395,-0.1405,-0.1405,-0.1393,-0.139,-0.1387,-0.1408,-0.1411,0,0,0,0,0,-0.1319,-0.1293,-0.1308,-0.1282,-0.1279,-0.1292,-0.1285,-0.1302,-0.1301,-0.1305,-0.1336,-0.1354,-0.1371,-0.1373,-0.139,-0.1378,-0.1397,-0.1395,-0.1393,-0.139,-0.1409,-0.1458,-0.1463,-0.1412,-0.1412,-0.1412,0,0,-0.1298,-0.1294,-0.1281,-0.1275,-0.1266,-0.1264,-0.129,-0.1276,-0.1301,-0.1316,-0.1346,-0.1366,-0.1374,-0.137,-0.1383,-0.1371,-0.1401,-0.1389,-0.1387,-0.1407,-0.1457,-0.1462,-0.1467,-0.1411,-0.1411,-0.1411,0,0,-0.1226,-0.124,-0.12,-0.1213,-0.1223,-0.1235,-0.1253,-0.1263,-0.1287,-0.1311,-0.134,-0.1354,-0.138,-0.137,-0.1374,-0.1363,-0.1408,-0.1385,-0.1367,-0.1413,-0.1418,-0.1424,-0.1399,-0.1403,-0.1357,-0.1357,-0.1357,0,-0.1217,-0.1185,-0.1184,-0.1168,-0.119,-0.1238,-0.1239,-0.1254,-0.1284,-0.1317,-0.1326,-0.1369,-0.1376,-0.1376,-0.1366,-0.1362,-0.1385,-0.1378,-0.1413,-0.1419,-0.1424,-0.1399,-0.1403,-0.1356,-0.1356,-0.1356,-0.1357,0,-0.1126,-0.1134,-0.1103,-0.1121,-0.1134,-0.1135,-0.1185,-0.1223,-0.1282,-0.1319,-0.1365,-0.1344,-0.1381,-0.1369,-0.1365,-0.1401,-0.14,-0.1427,-0.1426,-0.1429,-0.14,-0.1405,-0.1355,-0.1355,-0.1356,-0.1356,0,0,-0.1028,-0.1047,-0.1047,-0.1081,-0.113,-0.1131,-0.118,-0.124,-0.1295,-0.1321,-0.1368,-0.1369,-0.1399,-0.1403,-0.1394,-0.1396,-0.1423,-0.1428,-0.1431,-0.1413,-0.1496,-0.1425,-0.1422,-0.1482,-0.1484,-0.1486,-0.144,0,-0.098,-0.0973,-0.0994,-0.1022,-0.1032,-0.1118,-0.1163,-0.1233,-0.1296,-0.1348,-0.1354,-0.1403,-0.1401,-0.142,-0.1426,-0.1442,-0.1446,-0.1431,-0.149,-0.1489,-0.1436,-0.143,-0.1492,-0.1443,-0.1444,-0.1445,-0.1446,0,-0.0892,-0.0909,-0.0931,-0.1019,-0.1031,-0.1065,-0.1178,-0.1228,-0.1317,-0.137,-0.1416,-0.1457,-0.1462,-0.1469,-0.1491,-0.1495,-0.1515,-0.1503,-0.1502,-0.1457,-0.143,-0.1453,-0.1454,-0.1454,-0.1453,-0.1452,-0.1452,0,-0.0823,-0.0872,-0.0905,-0.0934,-0.1023,-0.1068,-0.1136,-0.1239,-0.127,-0.1401,-0.1414,-0.1486,-0.1482,-0.154,-0.1548,-0.155,-0.1558,-0.1556,-0.1493,-0.1485,-0.1571,-0.1567,-0.1607,-0.1607,-0.1607,-0.1607,-0.1608,0,-0.0764,-0.078,-0.0886,-0.0894,-0.0959,-0.1039,-0.1094,-0.1201,-0.1264,-0.1305,-0.142,-0.1437,-0.1517,-0.1534,-0.1562,-0.1528,-0.1587,-0.1494,-0.1485,-0.1553,-0.1548,-0.1571,-0.1567,-0.1606,-0.1606,-0.1606,-0.1607,0,-0.0667,-0.0729,-0.0774,-0.0885,-0.0918,-0.0974,-0.1046,-0.1075,-0.1175,-0.1218,-0.1263,-0.1379,-0.1455,-0.1484,-0.1553,-0.1507,-0.1516,-0.1506,-0.1534,-0.1528,-0.1393,-0.1389,-0.1401,-0.1398,-0.1396,-0.1394,-0.1393,0,-0.062,-0.0618,-0.0756,-0.079,-0.0838,-0.0905,-0.0935,-0.1036,-0.106,-0.1187,-0.1191,-0.1295,-0.1382,-0.1365,-0.1453,-0.1477,-0.1485,-0.1443,-0.1452,-0.139,-0.1381,-0.138,-0.1379,-0.1389,-0.1389,-0.1388,-0.1388,0,-0.0511,-0.057,-0.0625,-0.0699,-0.0745,-0.0801,-0.086,-0.0851,-0.0981,-0.1025,-0.1137,-0.1211,-0.1263,-0.1347,-0.137,-0.14,-0.1442,-0.142,-0.1424,-0.1432,-0.1376,-0.1369,-0.137,-0.138,-0.1381,-0.1382,-0.1383,0,-0.0451,-0.0475,-0.0546,-0.0615,-0.0654,-0.0711,-0.0763,-0.081,-0.0841,-0.0983,-0.1032,-0.1173,-0.1279,-0.1307,-0.1346,-0.1354,-0.1337,-0.1283,-0.1294,-0.1302,-0.1299,-0.1215,-0.1163,0,0,0,0,0,-0.0399,-0.0401,-0.0444,-0.0525,-0.056,-0.0612,-0.0703,-0.0756,-0.0845,-0.0899,-0.0965,-0.1062,-0.1154,-0.1224,-0.1215,-0.1283,-0.1322,-0.1262,-0.1261,-0.134,-0.1348,-0.1357,0,0,0,0,0,0,-0.0347,-0.0382,-0.0414,-0.0413,-0.045,-0.0499,-0.058,-0.0683,-0.072,-0.0832,-0.0896,-0.0969,-0.1073,-0.1143,-0.1183,-0.1197,-0.117,-0.1331,-0.1328,-0.1335,-0.1342,-0.1349,-0.1361,0,0,0,0,0]},{"header":{"parameterUnit":"m.s-1","parameterCategory":2,"la1":30.2991,"la2":30.254,"lo1":-89.0895,"lo2":-89.0444,"dy":0.0017,"dx":0.0017,"nx":28,"ny":28,"refTime":"2024-10-03T21:00:00:Z","depth":"4","parameterNumber":3,"parameterNumberName":"V-component_of_CURRENTS"},"data":[0,0,0,0,0,0,0,0,0,0,0,0,0,0,0,0,0,0,0,0,0,0,0,0,0,0,0,0,0,0,0,0,0,0,0,0,0,0,0,0,0,0,0,0,0,0,0,0,0,0,0,0,0,0,0,0,0,0,-0.0464,-0.0464,0,-0.0451,-0.045,-0.045,-0.0393,-0.0391,-0.039,-0.0389,-0.0297,-0.0295,-0.0294,0,0,0,0,0,0,0,0,0,0,0,0,0,-0.0374,-0.0377,-0.0464,-0.0464,-0.0464,-0.0451,-0.045,-0.045,-0.0393,-0.0391,-0.039,-0.0388,-0.0297,-0.0295,-0.0294,0,0,0,0,0,0,0,0,0,0,0,0,0,-0.0392,-0.0377,-0.0464,-0.0434,-0.0431,-0.0451,-0.045,-0.045,-0.0393,-0.0391,-0.0389,-0.0388,-0.0297,-0.0296,-0.0294,-0.032,0,0,-0.0288,-0.0287,0,0,0,0,0,0,0,0,-0.0391,-0.0395,-0.0438,-0.0436,-0.0433,-0.0422,-0.0385,-0.0403,-0.0394,-0.0407,-0.0389,-0.0387,-0.0333,-0.0328,-0.033,-0.0316,-0.0312,-0.0288,-0.0286,-0.0286,-0.0285,0,0,0,0,0,0,0,-0.039,-0.0395,-0.0458,-0.0439,-0.0435,-0.0399,-0.04,-0.0388,-0.0379,-0.0405,-0.0401,-0.0402,-0.0331,-0.0332,-0.0327,-0.031,-0.0288,-0.0286,-0.0285,-0.0284,-0.0315,-0.0317,0,0,0,0,0,0,-0.04,-0.0395,-0.0458,-0.0457,-0.0408,-0.0403,-0.0404,-0.0427,-0.038,-0.0372,-0.0404,-0.0399,-0.0336,-0.0329,-0.0323,-0.0356,-0.0286,-0.0284,-0.0283,-0.0313,-0.0316,-0.0318,0,0,0,0,0,0,-0.0398,-0.0406,-0.0459,-0.0424,-0.0429,-0.0407,-0.0433,-0.0428,-0.0426,-0.038,-0.037,-0.0407,-0.0334,-0.0326,-0.0328,-0.0351,-0.0283,-0.0281,-0.0311,-0.0314,-0.0317,-0.0417,0,0,0,0,0,0,-0.0396,-0.0407,-0.0427,-0.0426,-0.0431,-0.0479,-0.0435,-0.0429,-0.043,-0.0424,-0.038,-0.037,-0.0332,-0.0331,-0.0326,-0.0347,-0.028,-0.0309,-0.0312,-0.0316,-0.0411,-0.0423,-0.0433,0,0,0,0,0,-0.0393,-0.044,-0.0429,-0.0436,-0.0461,-0.0481,-0.0481,-0.0456,-0.0432,-0.0445,-0.042,-0.0371,-0.0351,-0.0332,-0.0325,-0.0346,-0.0307,-0.0311,-0.0316,-0.0406,-0.0421,-0.0433,0,0,0,0,0,0,-0.0413,-0.0438,-0.0426,-0.0478,-0.0479,-0.0471,-0.0488,-0.0467,-0.046,-0.0455,-0.04,-0.039,-0.0398,-0.0368,-0.0348,-0.0368,-0.032,-0.0323,-0.0391,-0.0404,-0.0415,-0.0397,-0.0278,0,0,0,0,0,-0.0429,-0.0474,-0.0473,-0.0517,-0.0521,-0.0505,-0.0509,-0.0496,-0.0488,-0.0482,-0.0454,-0.0429,-0.0415,-0.0405,-0.039,-0.0406,-0.0348,-0.0415,-0.0426,-0.0436,-0.0419,-0.0368,-0.0372,-0.0333,-0.0333,-0.0332,0,0,-0.0452,-0.0471,-0.0496,-0.0524,-0.0525,-0.0537,-0.0503,-0.0527,-0.0525,-0.0475,-0.0478,-0.0468,-0.0429,-0.0445,-0.0445,-0.0419,-0.0422,-0.0441,-0.0449,-0.0426,-0.0373,-0.0376,-0.0379,-0.0336,-0.0335,-0.0335,0,0,-0.051,-0.0534,-0.0577,-0.058,-0.059,-0.0581,-0.0589,-0.0589,-0.0576,-0.0584,-0.0551,-0.0561,-0.0534,-0.0522,-0.0506,-0.0572,-0.0483,-0.0568,-0.0604,-0.0558,-0.0559,-0.056,-0.0506,-0.0501,-0.0572,-0.0572,-0.0572,0,-0.0527,-0.0577,-0.059,-0.0614,-0.0618,-0.0601,-0.0622,-0.0614,-0.0612,-0.061,-0.0593,-0.0593,-0.0566,-0.0581,-0.0597,-0.0594,-0.0542,-0.0557,-0.0569,-0.0569,-0.0567,-0.0511,-0.0504,-0.0577,-0.0577,-0.0576,-0.0576,0,-0.0596,-0.0626,-0.0654,-0.0675,-0.0686,-0.0711,-0.0694,-0.0704,-0.0689,-0.0673,-0.0693,-0.0684,-0.0673,-0.0684,-0.0649,-0.065,-0.0608,-0.0589,-0.053,-0.0577,-0.0515,-0.0506,-0.0585,-0.0583,-0.0581,-0.058,0,0,-0.0648,-0.0692,-0.0698,-0.0709,-0.0717,-0.0737,-0.0744,-0.0745,-0.0748,-0.0754,-0.0761,-0.0765,-0.076,-0.0743,-0.0733,-0.0701,-0.0659,-0.0638,-0.0633,-0.0573,-0.0536,-0.0464,-0.0446,-0.0632,-0.0631,-0.063,-0.05,0,-0.0684,-0.0742,-0.0751,-0.0792,-0.0813,-0.0801,-0.0811,-0.0811,-0.0795,-0.08,-0.0798,-0.08,-0.078,-0.0788,-0.0756,-0.0683,-0.0636,-0.0694,-0.0506,-0.0501,-0.0421,-0.0434,-0.0626,-0.0492,-0.049,-0.0488,-0.0487,0,-0.0724,-0.0762,-0.0814,-0.0847,-0.0856,-0.0878,-0.0893,-0.0897,-0.0885,-0.0879,-0.0884,-0.0853,-0.0837,-0.0805,-0.0695,-0.0726,-0.0624,-0.0566,-0.0559,-0.0441,-0.0411,-0.0432,-0.047,-0.0471,-0.0472,-0.0474,-0.0475,0,-0.074,-0.0795,-0.0843,-0.0852,-0.0891,-0.0916,-0.0932,-0.0929,-0.0931,-0.0924,-0.092,-0.0895,-0.0872,-0.0772,-0.0626,-0.0649,-0.0472,-0.0493,-0.0337,-0.0331,-0.0389,-0.0389,-0.0383,-0.0383,-0.0383,-0.0383,-0.0384,0,-0.0756,-0.0791,-0.0862,-0.0884,-0.0948,-0.0958,-0.0996,-0.1007,-0.1008,-0.0993,-0.0966,-0.0933,-0.085,-0.0732,-0.0618,-0.0432,-0.0455,-0.0325,-0.0287,-0.0439,-0.0446,-0.0383,-0.0384,-0.0379,-0.038,-0.0381,-0.0381,0,-0.0749,-0.0792,-0.0856,-0.0928,-0.0957,-0.1002,-0.1044,-0.1049,-0.1056,-0.1034,-0.1028,-0.0947,-0.0782,-0.0666,-0.0481,-0.0406,-0.0252,-0.0168,-0.0316,-0.0291,-0.0152,-0.0161,-0.0017,-0.0014,-0.0011,-0.0008,-0.0006,0,-0.0742,-0.0776,-0.0892,-0.0935,-0.0971,-0.1033,-0.1057,-0.1082,-0.1067,-0.1011,-0.0985,-0.0842,-0.0755,-0.0457,-0.0344,-0.0131,-0.0097,-0.0038,-0.0123,-0.0134,-0.0112,-0.0126,-0.0139,-0.0001,0.0,0.0001,0.0002,0,-0.0726,-0.0781,-0.0845,-0.0937,-0.0991,-0.1036,-0.1063,-0.1055,-0.1035,-0.1051,-0.0899,-0.0756,-0.0562,-0.0389,-0.0205,-0.0059,-0.0108,-0.0005,-0.0013,-0.0092,-0.0112,-0.0096,-0.0112,0.0013,0.0011,0.001,0.001,0,-0.0717,-0.0762,-0.0848,-0.0926,-0.099,-0.1,-0.1027,-0.0977,-0.0969,-0.0902,-0.0832,-0.0657,-0.0572,-0.0343,-0.0172,-0.0025,-0.0019,-0.002,-0.0026,-0.0037,-0.0091,-0.0123,0.005,0,0,0,0,0,-0.0695,-0.0739,-0.0813,-0.09,-0.0956,-0.0989,-0.1002,-0.1006,-0.0984,-0.0864,-0.0849,-0.0651,-0.0397,-0.0302,-0.0135,-0.0136,-0.001,0.0058,-0.0019,0.0074,0.0061,0.0008,0,0,0,0,0,0,-0.0676,-0.075,-0.0802,-0.0852,-0.0893,-0.0936,-0.0939,-0.0929,-0.0857,-0.0821,-0.0678,-0.0633,-0.0384,-0.0484,-0.0138,-0.0098,-0.013,0.0163,0.0166,0.0081,0.007,0.006,-0.0,0,0,0,0,0]}]]